Theta_e
290 290 289 288 287 287 287 286 287 287 287 287 287 287 287 287 287 288 288 298 303 307 310 313 314 315 317 317 319 320 321 321 318 317 320 320 322 323 323 323 326 329 332
290 289 288 287 286 286 286 286 286 285 285 286 286 287 287 287 287 287 287 289 300 304 309 312 314 315 316 317 319 316 315 314 315 316 314 314 317 319 319 319 321 324 326
289 288 288 286 286 286 286 286 285 285 284 285 285 286 286 286 286 287 288 288 291 302 308 310 311 312 313 317 313 311 310 311 313 311 310 311 314 314 314 315 316 318 321
289 287 287 286 286 285 285 284 284 283 283 283 283 283 284 285 286 287 287 288 291 292 303 306 306 307 308 310 310 309 308 311 312 309 309 310 311 312 312 312 313 316 317
289 288 287 286 285 284 284 284 283 282 282 282 283 283 283 284 285 286 285 286 289 290 288 296 297 300 304 304 303 305 307 309 308 306 308 308 309 310 310 311 312 312 313
289 287 286 285 285 284 283 283 282 282 282 281 283 282 282 283 284 283 283 286 288 286 285 286 287 289 296 298 300 303 305 305 304 305 306 306 307 309 310 310 310 311 312
288 287 286 285 284 283 283 282 282 281 281 281 280 281 281 283 282 282 282 283 284 284 284 285 285 286 286 293 297 300 301 302 303 303 304 305 306 306 307 307 309 310 311
287 287 286 284 284 283 282 282 282 281 281 280 280 279 279 280 282 282 282 282 281 283 283 284 284 284 284 285 290 296 298 300 301 301 302 303 303 304 305 306 307 308 309
287 287 285 285 284 283 282 281 281 281 280 279 279 280 277 278 278 280 281 281 281 281 282 282 283 283 284 284 287 289 294 295 297 299 300 300 301 302 303 304 305 306 307
287 286 286 285 284 283 282 282 281 280 280 280 280 281 280 279 277 276 279 280 281 281 280 281 281 282 283 284 287 289 292 293 294 295 296 297 298 299 301 302 303 304 305
286 285 285 284 283 283 282 281 280 280 280 280 280 280 279 278 279 277 276 277 279 279 280 280 281 281 282 283 283 286 290 290 291 292 292 293 295 296 298 299 301 302 303
285 284 284 284 283 283 282 282 281 280 280 280 280 280 280 278 277 276 276 276 276 278 279 279 279 280 281 282 286 288 288 288 289 290 290 291 292 294 295 297 298 299 300
285 284 284 283 282 282 282 282 281 281 280 279 280 279 280 279 280 278 277 276 275 277 278 279 280 280 282 282 282 284 285 286 287 288 289 290 291 291 292 294 295 297 297
287 286 284 284 283 282 281 281 281 281 280 280 279 279 279 279 280 280 278 277 274 275 276 276 279 279 281 280 281 283 279 283 285 286 288 288 289 290 291 292 293 294 295
286 284 284 283 282 282 281 280 280 280 280 280 279 279 278 279 280 279 279 278 276 271 273 275 275 279 279 279 279 278 278 281 284 285 286 287 287 289 290 291 292 293 295
284 283 283 283 282 281 281 280 280 279 279 279 279 278 278 278 278 278 279 278 277 273 271 274 276 276 277 278 279 278 278 280 281 283 284 285 287 288 289 290 291 292 293
284 283 283 283 282 281 281 280 280 279 279 278 278 278 277 278 277 277 277 277 276 275 271 273 275 275 275 275 276 277 278 277 278 281 284 285 286 287 288 288 289 290 291
284 284 283 282 282 281 281 280 279 279 278 277 277 277 276 277 276 276 276 275 275 275 273 271 273 273 274 275 275 275 276 278 278 280 283 285 286 286 286 287 287 288 288
283 283 283 282 282 281 281 281 280 279 278 278 277 277 276 276 275 274 274 273 273 275 273 271 271 273 274 275 275 276 276 277 278 281 282 283 283 284 285 285 286 286 286
283 283 283 282 282 281 280 280 279 278 278 277 277 276 276 275 275 274 273 273 273 272 272 271 271 272 273 275 275 274 274 275 276 278 279 280 281 282 283 284 284 283 283
283 283 282 282 281 281 280 279 279 278 277 276 276 276 275 275 278 276 274 273 273 272 272 271 271 272 273 274 273 275 273 273 274 276 276 277 278 278 279 281 281 282 283
282 282 281 281 280 280 284 284 281 278 277 275 274 274 274 274 277 279 279 278 276 271 268 269 271 272 273 274 274 273 273 272 271 275 275 274 276 275 276 277 280 282 283
281 281 281 280 279 280 284 285 284 278 277 276 275 274 274 274 274 276 280 280 280 280 277 273 269 273 273 274 274 274 274 274 273 275 273 270 273 272 275 276 280 281 282
281 280 280 280 280 279 284 286 284 278 277 276 275 275 274 274 274 275 276 277 277 277 277 277 275 275 274 276 276 276 275 272 272 272 273 268 273 271 273 274 278 280 281
279 280 280 280 279 279 283 286 284 277 276 275 275 275 275 275 277 279 275 273 274 275 278 279 280 280 281 280 279 272 265 263 266 269 272 270 271 271 272 272 274 278 279
279 279 279 279 278 278 282 286 284 276 274 274 275 276 277 276 279 280 274 273 272 273 274 273 275 275 276 274 276 273 269 261 265 264 273 270 270 270 268 272 274 274 274
Wind_Speed
5 4 4 4 4 3 3 4 3 4 4 4 3 4 3 3 3 2 1 6 8 8 6 7 7 8 9 10 11 11 13 16 16 14 14 14 13 13 16 17 17 16 17
5 5 5 4 4 4 3 3 3 3 3 3 2 3 3 3 4 3 2 3 8 8 8 8 9 9 10 10 15 16 14 13 14 17 16 15 15 14 15 17 18 17 18
7 7 5 5 4 4 5 4 3 2 3 2 2 3 4 3 3 3 3 2 3 8 8 10 10 9 9 11 12 15 15 11 17 17 15 14 15 15 14 16 17 16 18
9 7 6 5 5 4 4 4 3 2 2 2 1 3 2 3 4 4 3 3 4 3 10 16 15 13 11 10 12 14 14 12 13 16 15 15 16 15 16 16 16 17 18
9 8 6 5 6 5 4 4 2 2 1 1 2 3 3 3 4 3 6 5 6 5 4 12 14 13 13 12 11 12 13 13 15 15 13 15 15 15 15 15 17 17 17
10 8 6 7 6 5 4 3 3 2 2 1 2 4 4 3 4 3 4 4 5 6 5 6 5 5 12 12 12 12 12 12 12 12 14 14 15 15 16 17 18 18 18
10 9 6 7 6 7 6 5 3 4 1 1 3 3 4 3 5 4 3 4 5 5 5 5 3 3 4 12 11 12 11 11 11 12 13 14 14 16 17 17 17 17 18
11 10 10 8 9 6 7 7 5 4 2 1 4 2 2 2 2 3 2 3 4 3 4 4 4 4 4 3 7 11 12 12 13 13 13 14 15 16 17 18 19 18 18
14 14 13 10 10 8 8 7 6 6 5 1 2 4 3 4 0 2 1 1 1 3 1 3 3 4 4 3 4 6 11 13 13 14 15 16 17 19 18 18 19 19 19
15 14 13 13 12 8 8 8 6 4 5 5 2 2 3 4 4 0 1 2 3 4 2 3 4 4 3 2 5 6 10 13 12 14 15 17 17 18 20 21 21 21 20
12 13 13 12 11 9 9 10 8 7 4 5 4 4 2 3 3 3 3 2 2 2 2 3 4 3 2 3 3 3 8 11 15 17 16 17 17 18 19 20 22 23 23
9 11 12 12 11 10 10 9 8 8 7 4 3 4 5 5 4 4 2 2 3 3 2 3 2 2 0 2 3 7 9 14 16 16 17 17 18 18 19 21 22 22 22
9 14 15 13 11 12 10 10 10 9 7 6 7 5 3 4 4 3 4 3 3 2 3 2 2 2 3 3 3 7 9 15 17 17 18 18 18 19 19 20 21 22 23
13 13 14 13 12 12 10 10 7 7 8 6 8 5 3 4 4 4 4 5 2 2 2 4 1 2 4 3 3 7 5 13 15 17 18 18 19 19 19 20 21 22 23
9 12 15 15 14 14 13 11 8 9 9 8 7 7 4 3 4 4 4 3 4 3 3 3 3 3 3 2 2 3 4 11 16 18 17 18 18 19 20 21 22 22 23
10 13 15 15 14 14 15 14 9 9 11 8 6 9 6 5 5 4 5 4 3 3 3 2 1 3 1 2 6 6 6 14 16 17 18 19 20 20 21 22 23 24 25
14 15 16 16 16 16 15 15 14 13 14 11 9 11 10 8 6 6 5 4 4 4 4 2 2 3 5 7 8 8 8 8 7 16 19 20 20 22 23 23 25 26 26
13 15 15 15 16 17 17 18 17 16 17 15 14 12 11 8 9 7 6 7 6 6 4 5 3 3 6 6 8 9 8 7 8 15 21 23 24 24 25 25 27 28 28
12 13 15 17 17 17 17 18 18 17 17 17 16 15 14 13 10 8 7 7 6 6 6 4 4 5 5 6 8 8 6 6 5 13 19 22 23 23 24 25 28 29 30
15 16 17 18 18 18 18 18 17 16 15 14 15 14 14 15 14 13 10 10 8 7 7 6 5 6 6 6 4 3 5 2 6 7 13 14 18 21 23 25 27 28 29
14 15 15 16 16 16 15 19 19 18 17 15 14 14 13 14 20 16 10 10 10 7 6 6 6 3 3 2 2 4 6 7 8 7 5 5 8 10 10 18 21 25 27
14 13 16 16 15 13 26 32 23 17 18 17 16 13 12 14 17 22 22 21 16 11 8 5 4 4 5 3 2 4 7 7 5 4 9 10 10 10 11 10 21 28 31
11 14 14 15 17 16 28 32 31 16 17 17 17 16 13 11 14 13 21 21 21 21 14 9 6 5 5 3 5 6 7 8 9 10 13 11 8 11 11 11 24 29 31
12 13 14 15 15 15 29 32 31 16 16 17 17 18 17 17 17 14 11 12 11 9 7 4 3 4 5 7 8 6 7 5 7 8 7 10 8 12 12 10 28 32 32
9 11 12 14 16 14 28 30 28 14 14 15 14 14 15 15 23 25 14 12 10 9 11 15 13 14 13 13 10 1 2 2 5 3 4 8 5 13 13 14 13 25 29
9 8 10 11 14 14 25 30 27 11 13 11 12 12 19 15 25 25 12 11 10 10 9 5 2 5 6 6 13 5 2 3 3 4 2 4 9 8 10 5 8 12 14
Wind_Direction
167 152 155 155 149 147 154 147 135 124 124 105 85 83 64 57 49 38 1 32 47 44 46 58 65 69 66 64 63 62 61 52 45 35 38 35 30 26 16 17 15 12 10
160 162 158 168 161 164 154 144 154 138 104 94 81 75 77 63 42 59 42 18 52 56 55 72 68 69 69 71 66 47 38 37 43 39 29 23 22 20 9 10 8 6 4
171 165 161 168 169 165 157 143 145 122 100 85 69 43 54 43 63 63 63 60 57 59 80 74 71 75 67 75 60 40 26 31 50 33 15 23 23 17 9 13 8 1 2
172 164 164 173 161 163 167 160 148 123 108 88 43 39 49 82 85 74 64 76 73 55 59 68 56 51 49 53 41 21 22 28 35 24 6 23 12 7 7 6 7 5 359
175 168 171 164 160 158 173 163 120 143 136 35 27 58 49 62 72 65 56 63 68 72 61 58 54 48 48 35 17 12 24 30 25 15 9 16 6 7 6 8 7 359 353
175 167 161 161 159 155 172 158 150 86 123 111 58 66 48 78 75 61 67 67 76 71 57 54 38 24 28 19 18 23 28 25 21 18 15 10 9 6 5 360 356 352 348
176 173 170 159 161 174 171 170 132 139 82 72 99 42 43 76 57 71 66 90 77 63 58 45 25 29 19 26 23 36 36 35 30 23 16 9 10 5 356 351 351 346 343
174 176 173 175 175 160 173 177 157 140 126 118 138 105 95 339 44 30 63 81 84 52 50 40 55 41 39 27 27 36 37 34 27 17 11 7 359 352 350 348 345 341 338
176 176 174 174 176 175 183 181 173 164 151 109 87 141 110 222 43 7 357 347 12 21 50 19 29 30 40 53 43 33 44 28 17 11 2 355 347 343 342 342 340 335 333
185 181 179 176 176 178 174 183 172 171 147 160 126 93 78 135 166 221 305 283 296 321 261 340 341 348 9 52 52 41 32 18 10 360 347 341 340 339 336 333 330 327 325
183 182 181 180 181 180 180 171 166 183 194 150 152 153 130 68 74 126 219 286 322 295 268 301 313 313 352 52 53 30 33 13 347 339 336 335 332 329 327 325 323 322 319
179 185 182 183 181 184 179 181 180 178 181 174 158 162 161 163 179 156 171 229 239 290 248 283 258 256 173 69 64 57 12 342 334 329 327 325 323 322 320 318 316 315 314
189 193 182 185 186 182 185 175 175 175 181 182 173 185 158 163 139 137 126 149 194 281 307 272 242 183 116 111 89 16 342 331 327 325 320 318 318 317 315 313 311 311 310
195 185 191 187 184 181 178 177 182 180 163 177 182 172 168 167 152 144 149 143 167 265 266 246 277 164 104 98 1 357 298 317 317 313 312 312 313 310 309 309 308 308 305
180 176 184 185 181 179 179 176 181 181 174 177 182 171 161 170 165 152 145 146 149 179 265 207 159 162 137 158 243 299 280 302 308 308 309 308 306 306 308 308 308 306 303
174 173 185 189 186 184 180 176 179 175 177 178 175 172 169 164 164 168 163 156 146 140 199 217 227 177 259 322 315 318 297 307 303 303 307 306 305 306 307 307 306 305 303
180 181 184 190 187 187 188 186 184 174 183 177 174 180 183 166 173 169 161 154 162 153 178 272 271 360 346 324 314 302 300 291 283 296 304 306 305 308 309 309 307 302 302
190 185 183 187 190 191 191 192 190 183 180 182 181 179 182 170 172 165 169 176 179 181 155 193 215 206 219 223 248 258 263 267 280 293 302 303 307 310 311 310 304 304 303
194 192 185 187 191 196 194 201 193 187 186 185 181 182 179 171 175 169 172 183 184 185 190 180 207 215 228 240 245 237 237 241 249 276 287 294 299 303 302 302 300 303 300
191 195 198 197 189 191 192 200 194 188 187 184 179 183 177 180 178 171 181 188 182 191 194 196 212 231 221 229 228 276 290 281 295 287 282 287 291 296 298 295 295 295 293
210 208 197 203 192 192 191 193 193 187 182 180 180 180 183 182 180 177 173 180 183 193 194 197 214 216 238 248 313 294 309 311 300 264 281 293 298 292 288 289 287 289 288
210 205 209 199 198 199 200 197 192 185 182 180 179 181 176 172 186 190 194 192 190 185 191 182 201 218 258 262 299 312 305 319 338 219 312 305 303 294 289 286 290 291 289
202 207 208 207 205 206 203 201 197 189 183 184 178 174 173 181 177 186 199 198 203 208 203 188 183 195 243 244 274 289 290 298 289 307 312 299 301 287 287 288 290 290 291
210 206 210 212 209 210 206 201 197 191 187 187 183 177 176 173 178 178 184 205 208 212 225 236 160 218 235 250 238 256 295 303 289 284 286 285 317 292 293 289 290 290 292
221 216 213 206 208 214 206 200 190 188 185 178 176 177 176 175 179 182 178 196 200 210 223 222 222 234 260 286 285 359 277 295 296 306 288 279 302 300 294 283 273 280 290
234 223 220 212 204 201 203 202 190 179 178 171 168 170 177 170 180 187 177 185 203 209 203 190 176 267 267 279 287 277 183 213 275 322 115 301 306 324 308 280 288 289 285